GFSFLT2_sfc_thetae_276.txt.gz
Theta_e
323 327 328 330 333 336 339 339 337 337 341 340 341 342 342 340 338 334 333 332 331 330 327 325 324 323 317
320 325 325 326 326 330 333 333 331 334 334 335 334 338 340 338 338 337 335 333 330 328 326 324 323 322 317
317 320 324 326 326 327 330 328 329 331 332 332 331 334 338 337 337 337 335 332 330 327 325 323 322 317 317
315 317 320 325 325 327 328 330 332 330 328 334 327 329 332 333 335 336 333 329 324 320 318 321 317 316 317
311 313 318 322 323 324 326 326 332 329 326 331 329 330 330 324 328 331 329 325 321 318 317 316 317 317 316
308 313 315 316 323 322 324 326 328 328 326 331 331 332 330 328 326 327 328 326 323 320 318 317 317 317 317
304 310 311 313 316 320 321 324 327 329 327 329 331 332 331 329 327 325 326 325 323 320 319 318 317 317 317
303 306 308 313 315 317 318 321 327 328 328 328 330 330 330 328 327 324 321 323 321 320 319 319 318 318 318
303 305 306 311 315 315 318 320 327 328 327 327 329 329 330 328 324 323 320 321 320 319 318 319 320 319 318
303 303 307 309 312 312 316 316 326 326 327 327 328 329 329 327 324 322 319 316 317 318 317 318 319 319 319
301 303 304 307 309 310 313 314 325 327 327 328 328 328 327 326 325 322 317 317 316 316 317 318 318 319 319
299 300 302 305 304 308 309 311 321 326 327 327 328 328 325 324 323 320 317 316 317 316 317 317 317 319 320
295 295 296 299 300 304 307 309 313 325 326 325 325 324 325 323 322 321 317 316 315 316 313 313 315 318 318
295 295 295 298 301 304 303 305 309 315 320 324 324 325 325 323 320 320 317 314 315 316 312 312 308 312 315
295 296 296 300 301 300 300 301 303 310 314 319 322 324 325 324 322 320 319 316 314 316 317 312 306 302 306
296 294 293 294 295 297 299 300 303 308 310 313 317 323 322 322 320 321 322 321 319 314 317 316 314 311 305

GFSFLT2_sfc_thetae_279.txt.gz
Theta_e
321 325 327 329 331 333 335 337 336 337 338 339 338 340 340 341 337 334 333 333 333 331 327 325 323 324 316
317 321 322 326 328 328 329 331 331 331 331 335 334 337 340 339 337 336 334 333 331 328 326 323 322 321 320
313 317 320 325 326 326 327 325 328 331 330 329 330 333 337 337 337 336 334 332 330 326 324 322 320 316 318
310 312 318 322 325 325 326 327 328 332 328 330 326 328 331 332 335 335 332 328 323 319 317 319 316 315 317
304 308 313 317 321 325 325 326 326 330 328 328 326 329 331 327 332 331 327 323 319 317 315 314 316 315 315
302 304 312 314 316 320 323 324 325 324 326 327 330 330 328 328 328 327 325 324 320 318 316 316 316 316 315
301 302 307 310 312 315 318 320 322 322 324 326 328 329 327 326 326 325 325 325 323 318 318 316 316 316 316
300 301 304 309 313 316 317 317 321 324 325 326 327 329 327 326 326 324 323 324 323 320 318 317 317 317 317
300 301 303 307 311 313 314 316 319 320 323 323 326 328 329 327 325 324 323 322 320 319 318 318 317 317 316
299 301 303 306 309 311 312 314 316 316 326 324 325 328 329 325 324 321 320 318 318 318 317 317 318 317 317
299 300 301 304 308 308 311 311 313 314 325 326 325 326 328 325 323 321 318 316 315 316 317 317 318 318 318
297 297 298 303 304 306 308 308 310 316 325 325 325 326 327 324 323 321 317 317 316 316 316 317 318 316 317
293 293 293 296 300 304 304 306 307 310 324 324 325 325 326 323 322 319 317 316 313 314 314 311 312 315 316
293 293 294 294 299 303 303 304 306 307 317 325 324 324 324 322 321 319 317 313 312 313 310 309 306 310 310
294 294 294 297 300 300 298 301 304 306 312 321 323 323 324 323 320 318 317 315 311 313 314 310 303 302 304
294 292 291 294 294 297 298 301 303 305 308 313 319 322 323 323 321 319 318 315 317 312 313 315 311 308 303

GFSFLT2_sfc_thetae_282.txt.gz
Theta_e
316 322 325 329 330 332 332 332 334 336 339 340 338 339 339 340 336 335 335 335 333 331 328 326 325 323 316
309 318 319 325 327 328 328 327 327 330 332 333 332 336 338 339 338 336 333 333 332 329 326 324 323 323 317
307 312 314 322 325 326 326 325 327 332 328 330 329 332 335 336 336 335 334 333 330 326 323 322 319 317 319
305 305 309 318 321 325 325 326 327 330 329 326 325 326 331 331 334 335 332 328 322 318 317 318 315 316 317
301 303 307 311 318 321 324 325 326 328 329 328 326 326 327 325 331 329 326 323 319 316 314 314 314 315 316
300 301 302 308 312 316 319 322 323 324 326 325 328 329 329 331 329 324 322 322 318 317 315 314 314 314 314
300 300 301 305 309 312 318 318 321 323 324 324 325 328 328 329 328 322 321 321 320 317 316 315 315 314 314
299 299 301 303 306 313 316 317 318 320 323 324 324 327 326 327 327 325 322 322 322 319 317 316 316 315 315
298 299 300 303 308 310 314 315 316 319 319 324 324 327 326 325 325 324 322 324 322 320 318 317 316 316 316
297 298 299 301 306 310 310 313 313 316 316 321 323 326 328 325 324 323 321 321 320 318 316 316 317 316 316
297 297 297 299 306 306 309 311 310 312 314 316 322 324 327 325 323 321 321 319 317 316 317 316 317 317 316
295 295 295 297 304 305 307 307 308 309 312 316 323 323 326 324 321 320 318 317 316 317 316 315 316 316 315
292 291 292 293 298 303 305 305 306 307 311 319 323 323 325 323 321 320 318 316 315 315 313 310 314 314 313
292 292 292 293 299 301 303 303 305 306 311 322 324 323 324 323 322 319 318 314 314 313 309 308 309 312 308
293 293 293 296 300 300 300 301 303 306 309 319 323 324 324 324 321 319 317 316 312 311 313 310 302 301 306
294 291 290 293 294 296 297 300 302 305 307 316 323 323 323 323 321 319 319 317 314 312 311 313 309 306 302

GFSFLT2_sfc_thetae_285.txt.gz
Theta_e
312 317 319 326 330 332 329 328 330 333 333 337 337 339 339 337 336 337 337 335 334 330 326 326 326 324 317
305 312 313 319 326 328 329 328 329 329 331 332 331 336 338 336 337 338 337 334 332 329 325 325 324 322 316
304 307 308 314 319 324 326 325 326 329 329 328 327 331 336 335 336 336 334 333 330 326 324 323 321 317 317
302 302 304 311 315 319 324 325 326 327 328 326 322 324 331 331 333 333 331 329 322 319 318 318 316 317 317
298 300 301 304 310 316 319 323 325 328 326 326 326 325 326 323 330 329 325 321 318 315 314 314 315 316 316
298 299 300 302 306 312 316 320 320 324 324 323 326 327 325 328 326 323 320 320 318 316 315 313 314 314 315
298 298 299 300 303 309 314 318 319 319 323 322 323 329 329 329 324 321 320 319 318 316 316 315 313 313 313
297 297 299 300 302 309 312 316 317 318 321 322 322 326 327 327 324 320 318 318 319 318 317 316 314 314 313
296 297 297 299 302 306 312 313 315 316 319 319 321 325 326 327 324 320 320 320 319 319 318 317 316 315 314
295 296 296 297 300 305 309 311 312 313 316 317 321 323 326 325 324 321 320 320 319 318 317 317 316 315 314
295 295 295 296 298 305 308 310 309 311 312 314 315 323 326 324 324 321 320 321 319 317 317 316 316 316 316
294 294 294 295 298 302 307 306 307 308 309 312 314 320 323 323 322 322 319 320 319 317 316 315 316 316 316
292 291 291 291 294 299 304 305 304 306 308 310 313 319 322 322 321 321 319 316 315 316 313 312 314 315 315
293 292 291 291 294 299 303 303 304 305 307 309 313 319 321 322 321 320 318 316 314 316 311 310 308 311 309
293 293 292 293 298 301 299 300 302 304 306 308 310 321 322 323 320 319 318 317 313 313 314 312 305 305 306
292 291 289 289 292 296 296 299 301 304 305 307 311 322 322 323 321 319 319 318 315 313 311 312 308 307 304

GFSFLT2_sfc_thetae_288.txt.gz
Theta_e
309 313 314 320 325 329 332 330 329 330 331 332 335 338 338 338 338 339 339 338 333 329 328 329 327 324 319
302 309 310 314 319 323 326 328 329 329 330 331 331 335 337 338 337 338 337 336 332 328 327 327 325 322 317
301 304 305 308 313 318 321 324 325 328 328 327 326 329 331 334 334 335 335 334 329 326 326 325 321 316 316
301 300 301 304 307 314 317 321 326 327 327 327 321 324 329 330 332 332 333 328 321 319 320 320 316 316 317
297 299 299 300 304 308 315 318 321 325 326 324 326 325 328 324 329 328 326 321 317 316 314 315 316 316 316
297 297 298 299 302 304 311 317 317 318 323 322 324 325 326 327 327 324 320 318 316 316 315 315 315 316 315
296 296 297 298 299 302 309 314 317 316 318 322 321 325 325 327 324 320 318 316 317 317 315 315 314 314 314
295 295 296 297 298 302 307 312 315 314 317 319 320 322 324 326 322 319 317 315 316 317 317 314 314 313 312
294 295 295 296 298 299 306 312 312 314 316 318 319 321 323 325 322 319 318 317 317 318 317 317 315 314 313
293 294 294 295 296 299 307 310 310 312 313 315 317 320 322 323 321 318 317 316 316 317 317 317 316 315 314
294 295 294 294 295 303 303 308 308 308 310 311 314 316 323 321 321 319 317 316 315 316 317 317 316 315 315
293 293 294 293 295 298 301 307 306 306 308 309 312 315 320 322 321 319 318 320 318 317 317 316 315 316 316
290 290 291 290 292 296 302 304 304 306 306 308 310 313 317 321 320 319 319 318 317 318 314 313 314 314 311
291 291 291 290 291 296 302 301 303 305 306 307 309 311 315 321 320 320 319 317 315 317 312 311 308 308 309
291 291 292 292 294 298 298 299 302 303 305 306 308 310 315 321 320 320 319 317 313 315 314 311 306 305 306
291 289 288 287 289 294 296 298 301 304 305 306 307 309 313 321 321 320 319 318 316 312 313 311 308 308 303

GFSFLT2_sfc_thetae_291.txt.gz
Theta_e
307 311 313 315 320 324 327 329 332 331 332 332 332 336 338 338 338 339 338 338 338 336 335 331 326 324 323
304 307 308 310 314 317 322 323 325 329 329 329 329 330 334 337 336 337 336 336 335 332 331 328 325 324 325
303 304 305 306 309 312 317 319 323 329 329 328 327 329 333 333 334 335 334 333 330 328 328 325 323 323 325
301 303 303 304 306 309 313 318 321 324 328 327 323 325 329 330 330 333 332 326 322 324 324 322 322 321 322
300 301 301 303 305 306 309 315 319 320 324 326 327 326 329 324 329 329 326 321 320 318 319 319 321 321 321
300 299 300 301 303 303 306 313 317 318 319 324 324 327 327 327 326 325 323 320 318 317 317 318 318 320 322
298 298 299 300 300 302 305 312 315 316 316 319 322 324 325 326 325 321 319 318 318 318 317 317 317 318 320
297 297 298 299 299 301 303 307 314 315 316 319 319 322 324 325 325 321 318 317 318 317 316 315 316 317 318
296 297 298 298 299 300 303 308 312 314 315 316 318 321 324 325 322 319 316 318 318 318 317 316 316 316 316
296 297 297 298 299 300 305 307 309 311 313 313 316 318 323 321 319 317 315 314 315 317 316 317 317 317 316
296 297 297 297 298 301 302 306 309 308 310 311 313 316 319 321 318 317 315 315 314 316 316 317 317 317 317
296 296 297 297 298 298 302 306 305 306 308 309 311 313 316 320 319 318 316 316 316 316 316 316 316 316 316
294 293 294 294 295 299 302 304 304 305 307 308 310 312 315 317 319 318 316 315 315 317 315 314 311 311 310
293 294 294 294 295 296 302 302 303 304 305 307 309 311 313 316 319 319 318 317 316 317 312 312 306 307 307
293 293 294 294 296 298 298 300 302 303 305 307 308 309 311 316 319 319 319 317 314 316 316 313 307 305 305
292 292 291 291 291 294 296 298 301 303 304 306 307 309 310 313 319 320 321 319 316 313 313 311 311 312 305

GFSFLT2_sfc_thetae_297.txt.gz
Theta_e
307 308 310 312 313 316 319 321 324 325 329 332 332 330 333 333 337 338 338 335 334 333 334 332 328 327 327
310 308 307 309 310 312 315 317 320 323 328 330 329 329 330 332 335 337 335 333 333 332 331 327 325 325 324
308 306 309 311 310 312 315 318 320 324 326 328 328 328 328 329 332 331 334 332 331 329 328 324 323 324 325
307 307 307 306 307 308 310 313 319 321 323 324 323 324 326 326 329 332 330 328 327 326 324 323 324 326 325
307 306 306 305 306 306 308 310 316 318 322 326 327 329 327 321 330 328 327 324 325 323 322 324 325 326 327
307 306 305 304 304 304 305 308 313 315 320 322 325 328 328 330 329 323 321 321 321 322 322 322 323 324 324
306 306 305 304 304 305 306 306 310 314 316 321 321 326 327 328 326 324 322 320 320 319 321 321 321 323 324
305 305 304 304 305 306 307 306 309 314 316 317 321 323 324 324 324 321 320 319 319 318 318 320 321 322 323
303 304 303 303 304 305 306 307 309 312 314 315 319 321 323 324 322 320 319 319 318 319 317 317 319 321 322
303 303 303 303 304 305 307 308 308 311 313 314 316 319 322 323 322 319 317 317 317 317 316 316 317 318 319
303 303 303 303 305 306 306 307 307 310 312 313 314 317 319 321 321 318 317 317 315 314 315 316 317 318 319
302 302 303 305 305 306 306 307 308 310 310 311 314 315 318 320 318 318 316 317 315 313 314 315 316 318 319
299 299 301 301 302 303 305 306 307 309 310 311 313 312 316 318 317 316 316 315 313 316 313 308 308 308 307
299 300 301 301 302 302 304 305 307 308 308 309 312 312 314 317 318 315 314 313 314 316 310 307 303 304 304
299 300 301 302 302 302 303 304 305 306 308 309 311 313 314 315 317 315 314 314 311 314 312 311 304 301 301
299 299 298 297 297 300 301 304 304 306 306 308 310 311 311 314 316 317 317 316 314 311 313 312 313 307 302